Il 0% ha trovato utile questo documento (0 voti)
7 visualizzazioni7 pagine

ID Date/time Temperature (°C) Humidity (%RH)

Il documento presenta una serie di registrazioni di temperatura e umidità effettuate tra il 5 e il 6 settembre 2023. I dati mostrano una variazione della temperatura da 21.60 °C a 18.60 °C e dell'umidità da 43.20% a 41.30%. Le misurazioni sono state effettuate a intervalli regolari durante il giorno e la notte.

Caricato da

indonnie9
Copyright
© All Rights Reserved
Per noi i diritti sui contenuti sono una cosa seria. Se sospetti che questo contenuto sia tuo, rivendicalo qui.
Formati disponibili
Scarica in formato PDF, TXT o leggi online su Scribd
Il 0% ha trovato utile questo documento (0 voti)
7 visualizzazioni7 pagine

ID Date/time Temperature (°C) Humidity (%RH)

Il documento presenta una serie di registrazioni di temperatura e umidità effettuate tra il 5 e il 6 settembre 2023. I dati mostrano una variazione della temperatura da 21.60 °C a 18.60 °C e dell'umidità da 43.20% a 41.30%. Le misurazioni sono state effettuate a intervalli regolari durante il giorno e la notte.

Caricato da

indonnie9
Copyright
© All Rights Reserved
Per noi i diritti sui contenuti sono una cosa seria. Se sospetti che questo contenuto sia tuo, rivendicalo qui.
Formati disponibili
Scarica in formato PDF, TXT o leggi online su Scribd

Page 1/7

9/8/2023 2:33:24 PM

ID Date/time Temperature [°C] Humidity [%rH]

1 9/5/2023 1:56:00 PM 21.60 43.20

2 9/5/2023 2:11:00 PM 21.00 44.20

3 9/5/2023 2:26:00 PM 20.80 44.30

4 9/5/2023 2:41:00 PM 20.70 44.40

5 9/5/2023 2:56:00 PM 20.70 44.20

6 9/5/2023 3:11:00 PM 20.60 44.00

7 9/5/2023 3:26:00 PM 20.60 43.80

8 9/5/2023 3:41:00 PM 20.50 43.60

9 9/5/2023 3:56:00 PM 20.50 43.60

10 9/5/2023 4:11:00 PM 20.50 43.70

11 9/5/2023 4:26:00 PM 20.50 43.50

12 9/5/2023 4:41:00 PM 20.50 43.40

13 9/5/2023 4:56:00 PM 20.40 43.20

14 9/5/2023 5:11:00 PM 20.40 43.00

15 9/5/2023 5:26:00 PM 20.30 42.80

16 9/5/2023 5:41:00 PM 20.20 42.70

17 9/5/2023 5:56:00 PM 20.10 42.60

18 9/5/2023 6:11:00 PM 20.10 42.70

19 9/5/2023 6:26:00 PM 20.00 42.60

20 9/5/2023 6:41:00 PM 20.00 42.80

21 9/5/2023 6:56:00 PM 19.90 42.50

22 9/5/2023 7:11:00 PM 19.90 42.40

23 9/5/2023 7:26:00 PM 19.90 42.60

24 9/5/2023 7:41:00 PM 19.80 42.30

25 9/5/2023 7:56:00 PM 19.80 42.10

26 9/5/2023 8:11:00 PM 19.70 42.00

27 9/5/2023 8:26:00 PM 19.70 42.20

28 9/5/2023 8:41:00 PM 19.70 41.90

29 9/5/2023 8:56:00 PM 19.60 41.70

30 9/5/2023 9:11:00 PM 19.60 41.70

31 9/5/2023 9:26:00 PM 19.50 41.70


Page 2/7
9/8/2023 2:33:24 PM

ID Date/time Temperature [°C] Humidity [%rH]

32 9/5/2023 9:41:00 PM 19.50 41.70

33 9/5/2023 9:56:00 PM 19.50 41.60

34 9/5/2023 10:11:00 PM 19.50 41.40

35 9/5/2023 10:26:00 PM 19.40 41.30

36 9/5/2023 10:41:00 PM 19.40 41.30

37 9/5/2023 10:56:00 PM 19.40 41.10

38 9/5/2023 11:11:00 PM 19.30 41.20

39 9/5/2023 11:26:00 PM 19.30 41.00

40 9/5/2023 11:41:00 PM 19.30 40.90

41 9/5/2023 11:56:00 PM 19.30 40.90

42 9/6/2023 12:11:00 AM 19.30 40.70

43 9/6/2023 12:26:00 AM 19.20 40.50

44 9/6/2023 12:41:00 AM 19.20 40.40

45 9/6/2023 12:56:00 AM 19.20 40.20

46 9/6/2023 1:11:00 AM 19.10 39.90

47 9/6/2023 1:26:00 AM 19.10 39.90

48 9/6/2023 1:41:00 AM 19.10 39.70

49 9/6/2023 1:56:00 AM 19.00 39.60

50 9/6/2023 2:11:00 AM 19.00 39.60

51 9/6/2023 2:26:00 AM 18.90 39.40

52 9/6/2023 2:41:00 AM 18.90 39.30

53 9/6/2023 2:56:00 AM 18.80 39.30

54 9/6/2023 3:11:00 AM 18.80 39.10

55 9/6/2023 3:26:00 AM 18.80 39.10

56 9/6/2023 3:41:00 AM 18.80 39.00

57 9/6/2023 3:56:00 AM 18.70 38.80

58 9/6/2023 4:11:00 AM 18.70 38.90

59 9/6/2023 4:26:00 AM 18.70 38.80

60 9/6/2023 4:41:00 AM 18.60 38.80

61 9/6/2023 4:56:00 AM 18.60 38.80

62 9/6/2023 5:11:00 AM 18.50 38.70

63 9/6/2023 5:26:00 AM 18.50 38.70

64 9/6/2023 5:41:00 AM 18.50 38.70

65 9/6/2023 5:56:00 AM 18.40 38.70

66 9/6/2023 6:11:00 AM 18.40 38.70

67 9/6/2023 6:26:00 AM 18.30 38.70

68 9/6/2023 6:41:00 AM 18.30 38.80

69 9/6/2023 6:56:00 AM 18.30 39.00

70 9/6/2023 7:11:00 AM 18.30 39.10

71 9/6/2023 7:26:00 AM 18.40 39.40

72 9/6/2023 7:41:00 AM 18.40 39.60

73 9/6/2023 7:56:00 AM 18.50 39.80

74 9/6/2023 8:11:00 AM 18.60 39.00

75 9/6/2023 8:26:00 AM 18.70 40.20

76 9/6/2023 8:41:00 AM 18.80 40.50


Page 3/7
9/8/2023 2:33:24 PM

ID Date/time Temperature [°C] Humidity [%rH]

77 9/6/2023 8:56:00 AM 18.90 40.70

78 9/6/2023 9:11:00 AM 19.00 40.80

79 9/6/2023 9:26:00 AM 19.20 41.30

80 9/6/2023 9:41:00 AM 19.30 41.30

81 9/6/2023 9:56:00 AM 19.40 41.50

82 9/6/2023 10:11:00 AM 19.50 41.50

83 9/6/2023 10:26:00 AM 19.60 41.60

84 9/6/2023 10:41:00 AM 19.70 41.60

85 9/6/2023 10:56:00 AM 19.80 41.80

86 9/6/2023 11:11:00 AM 19.90 42.00

87 9/6/2023 11:26:00 AM 20.00 42.20

88 9/6/2023 11:41:00 AM 20.20 42.30

89 9/6/2023 11:56:00 AM 20.30 42.30

90 9/6/2023 12:11:00 PM 20.40 42.40

91 9/6/2023 12:26:00 PM 20.50 42.40

92 9/6/2023 12:41:00 PM 20.60 42.40

93 9/6/2023 12:56:00 PM 20.60 42.40

94 9/6/2023 1:11:00 PM 20.70 42.50

95 9/6/2023 1:26:00 PM 20.70 42.50

96 9/6/2023 1:41:00 PM 20.80 42.60

97 9/6/2023 1:56:00 PM 21.00 43.40

98 9/6/2023 2:11:00 PM 21.10 43.60

99 9/6/2023 2:26:00 PM 20.90 43.70

100 9/6/2023 2:41:00 PM 20.60 43.50

101 9/6/2023 2:56:00 PM 20.50 43.30

102 9/6/2023 3:11:00 PM 20.30 43.20

103 9/6/2023 3:26:00 PM 20.20 43.10

104 9/6/2023 3:41:00 PM 20.10 43.20

105 9/6/2023 3:56:00 PM 20.10 43.20

106 9/6/2023 4:11:00 PM 19.90 43.10

107 9/6/2023 4:26:00 PM 19.90 43.00

108 9/6/2023 4:41:00 PM 19.80 42.90

109 9/6/2023 4:56:00 PM 19.70 42.90

110 9/6/2023 5:11:00 PM 19.60 42.90

111 9/6/2023 5:26:00 PM 19.60 42.80

112 9/6/2023 5:41:00 PM 19.50 42.60

113 9/6/2023 5:56:00 PM 19.40 42.50

114 9/6/2023 6:11:00 PM 19.40 42.40

115 9/6/2023 6:26:00 PM 19.30 42.40

116 9/6/2023 6:41:00 PM 19.20 42.20

117 9/6/2023 6:56:00 PM 19.20 42.10

118 9/6/2023 7:11:00 PM 19.10 42.00

119 9/6/2023 7:26:00 PM 19.00 41.90

120 9/6/2023 7:41:00 PM 19.00 41.80

121 9/6/2023 7:56:00 PM 18.90 41.70


Page 4/7
9/8/2023 2:33:24 PM

ID Date/time Temperature [°C] Humidity [%rH]

122 9/6/2023 8:11:00 PM 18.90 41.60

123 9/6/2023 8:26:00 PM 18.80 41.60

124 9/6/2023 8:41:00 PM 18.80 41.60

125 9/6/2023 8:56:00 PM 18.70 41.50

126 9/6/2023 9:11:00 PM 18.60 41.40

127 9/6/2023 9:26:00 PM 18.60 41.30

128 9/6/2023 9:41:00 PM 18.60 41.20

129 9/6/2023 9:56:00 PM 18.70 41.00

130 9/6/2023 10:11:00 PM 18.90 40.80

131 9/6/2023 10:26:00 PM 19.00 40.70

132 9/6/2023 10:41:00 PM 19.10 40.70

133 9/6/2023 10:56:00 PM 19.10 40.60

134 9/6/2023 11:11:00 PM 19.10 40.60

135 9/6/2023 11:26:00 PM 19.10 40.60

136 9/6/2023 11:41:00 PM 19.10 40.40

137 9/6/2023 11:56:00 PM 19.10 40.40

138 9/7/2023 12:11:00 AM 19.10 40.40

139 9/7/2023 12:26:00 AM 19.10 40.30

140 9/7/2023 12:41:00 AM 19.10 40.20

141 9/7/2023 12:56:00 AM 19.10 40.20

142 9/7/2023 1:11:00 AM 19.10 40.20

143 9/7/2023 1:26:00 AM 19.10 40.10

144 9/7/2023 1:41:00 AM 19.10 40.20

145 9/7/2023 1:56:00 AM 19.10 40.10

146 9/7/2023 2:11:00 AM 19.10 40.10

147 9/7/2023 2:26:00 AM 19.00 40.00

148 9/7/2023 2:41:00 AM 19.00 40.00

149 9/7/2023 2:56:00 AM 19.00 40.10

150 9/7/2023 3:11:00 AM 19.00 40.10

151 9/7/2023 3:26:00 AM 19.00 40.00

152 9/7/2023 3:41:00 AM 18.90 40.00

153 9/7/2023 3:56:00 AM 18.90 40.00

154 9/7/2023 4:11:00 AM 18.90 40.00

155 9/7/2023 4:26:00 AM 18.90 39.90

156 9/7/2023 4:41:00 AM 18.80 39.80

157 9/7/2023 4:56:00 AM 18.80 39.80

158 9/7/2023 5:11:00 AM 18.80 39.70

159 9/7/2023 5:26:00 AM 18.70 39.70

160 9/7/2023 5:41:00 AM 18.70 39.70

161 9/7/2023 5:56:00 AM 18.70 39.60

162 9/7/2023 6:11:00 AM 18.60 39.60

163 9/7/2023 6:26:00 AM 18.60 39.60

164 9/7/2023 6:41:00 AM 18.60 39.70

165 9/7/2023 6:56:00 AM 18.60 39.90

166 9/7/2023 7:11:00 AM 18.60 40.00


Page 5/7
9/8/2023 2:33:24 PM

ID Date/time Temperature [°C] Humidity [%rH]

167 9/7/2023 7:26:00 AM 18.70 40.10

168 9/7/2023 7:41:00 AM 18.70 40.30

169 9/7/2023 7:56:00 AM 18.80 40.50

170 9/7/2023 8:11:00 AM 18.90 40.70

171 9/7/2023 8:26:00 AM 19.00 40.90

172 9/7/2023 8:41:00 AM 19.00 41.10

173 9/7/2023 8:56:00 AM 19.10 41.20

174 9/7/2023 9:11:00 AM 19.30 41.70

175 9/7/2023 9:26:00 AM 19.50 41.80

176 9/7/2023 9:41:00 AM 19.50 41.90

177 9/7/2023 9:56:00 AM 19.60 41.90

178 9/7/2023 10:11:00 AM 19.70 41.90

179 9/7/2023 10:26:00 AM 19.80 41.90

180 9/7/2023 10:41:00 AM 19.90 42.10

181 9/7/2023 10:56:00 AM 20.00 42.20

182 9/7/2023 11:11:00 AM 20.10 42.40

183 9/7/2023 11:26:00 AM 20.20 42.50

184 9/7/2023 11:41:00 AM 20.40 42.50

185 9/7/2023 11:56:00 AM 20.40 42.60

186 9/7/2023 12:11:00 PM 20.60 42.70

187 9/7/2023 12:26:00 PM 20.70 42.70

188 9/7/2023 12:41:00 PM 20.80 42.70

189 9/7/2023 12:56:00 PM 20.80 42.80

190 9/7/2023 1:11:00 PM 20.90 43.00

191 9/7/2023 1:26:00 PM 20.90 42.80

192 9/7/2023 1:41:00 PM 20.90 43.20

193 9/7/2023 1:56:00 PM 20.80 42.80

194 9/7/2023 2:11:00 PM 20.70 42.70

195 9/7/2023 2:26:00 PM 20.70 42.80

196 9/7/2023 2:41:00 PM 20.80 42.70

197 9/7/2023 2:56:00 PM 20.70 42.60

198 9/7/2023 3:11:00 PM 20.70 42.70

199 9/7/2023 3:26:00 PM 20.70 42.70

200 9/7/2023 3:41:00 PM 20.70 42.60

201 9/7/2023 3:56:00 PM 20.70 42.50

202 9/7/2023 4:11:00 PM 20.80 42.90

203 9/7/2023 4:26:00 PM 20.80 42.80

204 9/7/2023 4:41:00 PM 20.80 42.80

205 9/7/2023 4:56:00 PM 20.70 42.60

206 9/7/2023 5:11:00 PM 20.70 42.60

207 9/7/2023 5:26:00 PM 20.70 42.50

208 9/7/2023 5:41:00 PM 20.60 42.40

209 9/7/2023 5:56:00 PM 20.60 42.40

210 9/7/2023 6:11:00 PM 20.50 42.30

211 9/7/2023 6:26:00 PM 20.50 42.40


Page 6/7
9/8/2023 2:33:24 PM

ID Date/time Temperature [°C] Humidity [%rH]

212 9/7/2023 6:41:00 PM 20.50 42.30

213 9/7/2023 6:56:00 PM 20.40 42.20

214 9/7/2023 7:11:00 PM 20.40 42.10

215 9/7/2023 7:26:00 PM 20.40 42.00

216 9/7/2023 7:41:00 PM 20.40 41.90

217 9/7/2023 7:56:00 PM 20.30 41.90

218 9/7/2023 8:11:00 PM 20.30 41.90

219 9/7/2023 8:26:00 PM 20.30 41.90

220 9/7/2023 8:41:00 PM 20.20 41.80

221 9/7/2023 8:56:00 PM 20.20 41.80

222 9/7/2023 9:11:00 PM 20.20 41.80

223 9/7/2023 9:26:00 PM 20.20 41.70

224 9/7/2023 9:41:00 PM 20.10 41.70

225 9/7/2023 9:56:00 PM 20.10 41.60

226 9/7/2023 10:11:00 PM 20.10 41.60

227 9/7/2023 10:26:00 PM 20.10 41.60

228 9/7/2023 10:41:00 PM 20.00 41.60

229 9/7/2023 10:56:00 PM 20.00 41.40

230 9/7/2023 11:11:00 PM 20.00 41.30

231 9/7/2023 11:26:00 PM 19.90 41.40

232 9/7/2023 11:41:00 PM 19.90 41.50

233 9/7/2023 11:56:00 PM 19.90 41.50

234 9/8/2023 12:11:00 AM 19.90 41.50

235 9/8/2023 12:26:00 AM 19.90 41.40

236 9/8/2023 12:41:00 AM 19.80 41.30

237 9/8/2023 12:56:00 AM 19.80 41.20

238 9/8/2023 1:11:00 AM 19.80 41.10

239 9/8/2023 1:26:00 AM 19.80 41.00

240 9/8/2023 1:41:00 AM 19.70 41.00

241 9/8/2023 1:56:00 AM 19.70 40.80

242 9/8/2023 2:11:00 AM 19.70 40.80

243 9/8/2023 2:26:00 AM 19.70 40.70

244 9/8/2023 2:41:00 AM 19.60 40.60

245 9/8/2023 2:56:00 AM 19.60 40.60

246 9/8/2023 3:11:00 AM 19.60 40.40

247 9/8/2023 3:26:00 AM 19.50 40.40

248 9/8/2023 3:41:00 AM 19.50 40.20

249 9/8/2023 3:56:00 AM 19.50 40.10

250 9/8/2023 4:11:00 AM 19.50 40.10

251 9/8/2023 4:26:00 AM 19.50 40.00

252 9/8/2023 4:41:00 AM 19.50 39.90

253 9/8/2023 4:56:00 AM 19.40 39.90

254 9/8/2023 5:11:00 AM 19.40 39.80

255 9/8/2023 5:26:00 AM 19.40 39.70

256 9/8/2023 5:41:00 AM 19.30 39.70


Page 7/7
9/8/2023 2:33:24 PM

ID Date/time Temperature [°C] Humidity [%rH]

257 9/8/2023 5:56:00 AM 19.30 39.70

258 9/8/2023 6:11:00 AM 19.30 39.70

259 9/8/2023 6:26:00 AM 19.30 39.70

260 9/8/2023 6:41:00 AM 19.30 39.70

261 9/8/2023 6:56:00 AM 19.30 39.80

262 9/8/2023 7:11:00 AM 19.30 39.80

263 9/8/2023 7:26:00 AM 19.30 39.90

264 9/8/2023 7:41:00 AM 19.40 40.00

265 9/8/2023 7:56:00 AM 19.50 40.10

266 9/8/2023 8:11:00 AM 19.50 40.30

267 9/8/2023 8:26:00 AM 19.60 40.40

268 9/8/2023 8:41:00 AM 19.60 40.70

269 9/8/2023 8:56:00 AM 19.70 40.80

270 9/8/2023 9:11:00 AM 19.80 41.00

271 9/8/2023 9:26:00 AM 19.90 41.30

272 9/8/2023 9:41:00 AM 20.00 41.40

273 9/8/2023 9:56:00 AM 20.00 41.70

274 9/8/2023 10:11:00 AM 20.20 41.80

275 9/8/2023 10:26:00 AM 20.30 41.90

276 9/8/2023 10:41:00 AM 20.40 41.90

277 9/8/2023 10:56:00 AM 20.50 41.90

278 9/8/2023 11:11:00 AM 20.60 42.00

279 9/8/2023 11:26:00 AM 20.70 42.00

280 9/8/2023 11:41:00 AM 20.80 41.90

281 9/8/2023 11:56:00 AM 20.90 41.80

282 9/8/2023 12:11:00 PM 21.00 41.90

283 9/8/2023 12:26:00 PM 21.10 41.90

284 9/8/2023 12:41:00 PM 21.20 41.80

285 9/8/2023 12:56:00 PM 21.30 41.90

286 9/8/2023 1:11:00 PM 21.30 42.00

287 9/8/2023 1:26:00 PM 21.40 42.30

288 9/8/2023 1:41:00 PM 21.40 42.40

289 9/8/2023 1:56:00 PM 21.40 42.60

Potrebbero piacerti anche